Current Version              Previous Version:    01  02  03  04  05  06  07  08  09  10  11  12  13  14  15  16  17  18  19  20  21  22  23  24  25  26  27  28  29  30  
   31  32  33  34  35  36  37  38  39  40  41  42  43  44  45  46  47  48  49  50  51  52  53  54  55  56  57  58  59  60  

[Printable]
234
ASUS44 KLUB 260210
RWRTX
WEST TEXAS WEATHER ROUNDUP
NATIONAL WEATHER SERVICE LUBBOCK TX
900 PM CDT SAT OCT 25 2014

NOTE: "FAIR" INDICATES FEW OR NO CLOUDS BELOW 12,000 FEET WITH NO
SIGNIFICANT WEATHER AND/OR OBSTRUCTIONS TO VISIBILITY.

TXZ004-006>008-010-012-014-016-OKZ002-260300-
TEXAS PANHANDLE/OKLAHOMA PANHANDLE

CITY           SKY/WX    TMP DP  RH WIND       PRES   REMARKS
AMARILLO       CLEAR     68  50  52 S13       30.07S
BORGER         CLEAR     76  48  37 S14G23    30.02F
CANADIAN       CLEAR     76  50  39 S12       30.00F
DALHART        CLEAR     63  42  46 S10       30.05S
DUMAS            N/A     68  46  44 S10       30.05S
GUYMON         CLEAR     71  46  40 S12       29.98S
HEREFORD       CLEAR     66  51  59 SE9       30.09S
PAMPA          CLEAR     69  47  44 S10       30.06S
PERRYTON       CLEAR     68  47  47 S12       30.01F
$$

TXZ026-029-035-045-048-260300-
SOUTHERN PANHANDLE/SOUTH PLAINS/ROLLING PLAINS

CITY           SKY/WX    TMP DP  RH WIND       PRES   REMARKS
CHILDRESS      CLEAR     71  51  49 S9        30.04S
SEMINOLE       CLEAR     65  52  62 CALM      30.12S
LUBBOCK        CLEAR     68  51  54 S12       30.09S
PLAINVIEW      CLEAR     66  53  63 S9        30.09S
SNYDER         CLEAR     71  52  51 SE9       30.09S
$$

TXZ052-054-060>062-072-078-127-140-154-169-260300-
PERMIAN BASIN/CONCHO VALLEY/BIG COUNTRY/EDWARDS PLATEAU

CITY           SKY/WX    TMP DP  RH WIND       PRES   REMARKS
ABILENE        CLEAR     72  50  45 SE7       30.08S
BIG SPRING     CLEAR     74  47  38 SE9       30.12R
BRADY          CLEAR     73  54  49 SE6       30.11R
BROWNWOOD      PTCLDY    73  55  53 SE7       30.09S
JUNCTION       CLEAR     74  51  44 S5        30.12R
MIDLAND        CLEAR     74  48  39 SE9       30.10R
ODESSA         CLEAR     76  49  38 S9        30.11R
SAN ANGELO     CLEAR     72  49  44 S7        30.09R
SONORA         CLEAR     72  52  49 CALM      30.17R
SWEETWATER     CLEAR     71  49  45 S8        30.12S
WINK           CLEAR     72  52  49 SE6       30.07R
$$

TXZ055-058-074-075-080-082-260300-
FAR WEST/SOUTHWEST MOUNTAINS/TRANS PECOS

CITY           SKY/WX    TMP DP  RH WIND       PRES   REMARKS
ALPINE         CLEAR     65  47  50 W5        30.26R
DRYDEN           N/A     74  57  55 E6        30.10R
EL PASO        CLEAR     77  45  32 SW3       30.13R
FORT STOCKTON  CLEAR     74  54  49 S13       30.11R
GUADALUPE PASS CLEAR     69  37  30 W15       30.25R
MARFA          CLEAR     64  48  55 S7        30.25R
PECOS          CLEAR     70  55  58 E6        30.06S
PRESIDIO       FAIR      74  49  41 N8        30.09S
$$

TXZ014-016-019-021>030-083-260300
TEXAS TECH WEST TEXAS MESONET/TEXAS PANHANDLE/NORTHERN SOUTH PLAINS

CITY           SKY/WX    TMP DP  RH WIND       PRES   REMARKS
ABERNATHY 5ENE   N/A     65  52  63 SE9       30.11S
AMARILLO 9NNE    N/A     68  51  53 S10       30.05S
AMARILLO 7SSE    N/A     69  51  51 S14       30.08F
AMHERST 1NE      N/A     65  48  55 S8        30.11S
BOOTLEG 11WNW    N/A     61  41  46 SW9       30.13S
CANADIAN 6E      N/A     70  51  49 S6        30.00S
CAPROCK CYN SP   N/A     69  52  54 SW8       30.07S
CHILDRESS 2NNE   N/A     75  50  41 S10       30.03S
CLARENDON 2WSW   N/A     73  49  43 S12       30.06S
CLAUDE 12SW      N/A     72  50  46 S9        30.08S
DIMMITT 2NE      N/A     64  48  57 S9        30.10S
FLOYDADA 2NNE    N/A     64  51  64 S9        30.10S
FRIONA 2NE       N/A     65  45  47 S12       30.11S
GOODLETT 3W      N/A     69  50  51 S8        30.02S
HART 3N          N/A     65  52  62 S8        30.10S
HEREFORD 2NW     N/A     66  45  46 S9        30.09S
MCLEAN 1E        N/A     71  49  44 S12       30.04F
MEMPHIS 1NE      N/A     73  51  46 SE5       30.03S
MULESHOE 2SSW    N/A     63  47  55 S8        30.11S
OLTON 6S         N/A     64  51  64 SE9       30.10S
PALO DURO SP     N/A     73  50  43 S13       30.09S
PAMPA 2E         N/A     68  48  48 S9        30.06S
PLAINVIEW 1S     N/A     68  53  59 S9        30.09S
SILVERTON 7ESE   N/A     69  51  52 S10       30.09S
TULIA 2ENE       N/A     66  52  61 S13       30.09S
TURKEY 2WSW      N/A     69  52  55 S9        30.05S
UMBARGER 3NNE    N/A     69  51  53 S14       30.09S
$$

TXZ033>036-039>041-045>048-260300
TEXAS TECH WEST TEXAS MESONET/SOUTH PLAINS

CITY           SKY/WX    TMP DP  RH WIND       PRES   REMARKS
AIKEN 3WSW       N/A     65  53  65 S10       30.11S
ANDREWS 2NE      N/A     70  49  47 S3        30.12R
ANTON 6SSW       N/A     64  53  67 S7        30.10S
BROWNFIELD 2S    N/A     61  51  70 SE9       30.11S
DENVR CTY 7WNW   N/A     65  49  56 S8        30.12S
GAIL 2ESE        N/A     69  53  55 SE6       30.07F
LAMESA 2SE       N/A     65  50  56 SE5       30.11S
LEVELLAND 4S     N/A     62  49  64 S8        30.11S
LUBBOCK 3WNW     N/A     72  49  44 SE8       30.10S
MORTON 1ENE      N/A     64  47  53 S8        30.11S
ODONNELL 1N      N/A     69  46  43 SE6       30.10F
PLAINS 3N        N/A     67  48  49 S9        30.12S
RALLS 1SE        N/A     64  51  64 SE7       30.11S
REESE CENTER     N/A     67  51  56 S9        30.11R
SEMINOLE 2NNE    N/A     65  51  62 S8        30.12R
SLATON 2NE       N/A     66  49  54 S10       30.10S
SNYDER 3E        N/A     69  51  52 SE10      30.08S
SUNDOWN 8SW      N/A     61  48  62 S9        30.12R
TAHOKA 3NNE      N/A     64  48  56 SE7       30.10S
WOLFFORTH 6SSW   N/A     65  51  61 S6        30.11S
$$

TXZ031-032-036>038-042>044-260300-
TEXAS TECH WEST TEXAS MESONET/ROLLING PLAINS

CITY           SKY/WX    TMP DP  RH WIND       PRES   REMARKS
ASPERMONT 3NE    N/A     71  52  50 SE7       30.05S
FLUVANNA 3WNW    N/A     67  53  59 E7        30.09S
GRAHAM 5SSW      N/A     73  49  42 SE6       30.09S
GUTHRIE 10WSW    N/A     71  51  50 S9        30.05S
HASKELL 1NW      N/A     77  46  33 S8        30.04S
JAYTON 1SSE      N/A     69  51  53 SE5       30.06S
KNOX CITY 3NW    N/A     71  47  42 S6        30.04S
LK A HENRY 1NW   N/A     68  55  62 S2        30.07S
NORTHFIELD 1S    N/A     72  53  51 S10       30.04S
ODELL 4ENE       N/A     73  52  48 S10       30.02S
PADUCAH 10SW     N/A     69  51  53 SW9       30.05S
POST 1NE         N/A     71  51  48 S6        30.08S
RRING SPRGS 3N   N/A     65  54  66 S7        30.08S
SEYMOUR 3NW      N/A     70  49  46 SE7       30.02S
SPUR 1W          N/A     67  52  57 S3        30.06S
WEINERT 2NNE     N/A     73  49  42 S8        30.04S
WHITE RVR 6NE    N/A     70  53  54 S1        30.08S
$$

TXZ052-054-060>062-072-078-127-140-154-169-260300-
TEXAS TECH WEST TEXAS MESONET/PERMIAN BASIN/
CONCHO VALLEY/BIG COUNTRY/EDWARDS PLATEAU

CITY           SKY/WX    TMP DP  RH WIND       PRES   REMARKS
COYANOSA 2N      N/A     74  56  54 SE8       30.08R
JUNCTION 1SSW    N/A     72  53  51 S3        30.12S
MERTZON 3NNE     N/A     67  50  54 S7        30.12S
SAN ANGELO 7NW   N/A     71  45  39 S2        30.09S
STRLNG CT 4WSW   N/A     73  46  38 S10       30.11R
ST LAWRNCE 5SW   N/A     70  43  37 SE10      30.11S
SWEETWATR 11SW   N/A     66  50  55 SE7       30.11S
WALL 1E          N/A     70  49  47 S8        30.10S
$$

TXZ055-058-074-075-080-082-260300-
TEXAS TECH WEST TEXAS MESONET/FAR WEST/SOUTHWEST MOUNTAINS/TRANS PECOS

CITY           SKY/WX    TMP DP  RH WIND       PRES   REMARKS
PRSMN GAP BBNP   N/A     76  53  43 N10       30.11R
GUADLPE MTN NP   N/A     66  34  31 W7        30.25S
$$